GEESAT-5 10

Last updated on Thu Oct 09 2025 00:02:05 GMT+0000 (Coordinated Universal Time)

1 65559U 25201K 25281.47990264 .00003530 00000+0 42228-3 0 9990 2 65559 49.9787 126.7475 0010904 25.9417 334.2067 14.86302823 4411
UTC large
Height (km)
Speed (km/s)
/
Latitude / Longitude
Inclination (degrees)
Orbital Period (minutes)
Azimuth
Elevation
Range (km)
Doppler Factor

Next 0 passes for location: London (51.5072 / 0.1276)

Sorry there are no passes over London.
GEESAT-5 10